Temperature
6 6 6 6 6 6 5 5 5 5 5 5 5 5 5 5 5 5 5 5 4 4 4 4 4 5 5 5 5 5 5 5 5 5 5 6 6 6 6 6 6 6 6
6 6 6 6 5 5 5 5 5 5 5 5 4 4 4 5 5 5 4 4 4 4 4 4 4 4 4 4 5 5 5 5 4 5 5 5 5 5 5 6 6 6 6
5 5 5 5 5 5 5 5 4 4 4 4 4 4 4 4 4 4 4 4 4 4 4 4 4 4 4 4 5 4 4 4 4 4 4 5 5 5 5 5 5 5 5
5 5 5 5 4 4 4 4 4 4 4 4 4 4 4 4 4 4 4 4 4 4 4 4 4 4 4 4 4 4 4 4 4 4 4 4 4 4 4 5 5 5 5
4 4 4 4 4 4 4 4 3 3 3 3 3 3 3 3 3 3 3 3 3 3 3 4 4 4 4 4 4 4 4 4 4 4 4 4 4 4 4 4 4 4 4
4 4 4 4 3 3 3 3 3 3 3 3 3 3 3 3 3 3 3 3 3 3 3 3 3 3 3 3 3 3 3 3 4 4 4 4 4 4 4 4 3 3 3
3 3 3 3 3 3 3 3 3 2 2 3 3 3 3 3 3 3 3 3 3 3 3 3 3 3 3 3 3 3 3 3 3 4 4 4 4 4 4 3 3 3 3
3 2 2 2 2 2 2 2 2 2 2 2 2 2 2 2 2 2 2 2 2 2 2 2 3 3 3 3 3 3 3 3 3 3 4 4 4 3 3 3 3 3 3
2 2 2 2 2 2 2 2 2 2 2 2 2 2 2 2 2 2 2 2 2 2 2 2 2 2 3 3 3 3 3 3 3 3 3 3 3 3 3 3 2 2 2
1 1 1 1 1 1 1 1 1 1 1 1 1 1 1 1 1 1 1 1 2 2 2 2 2 2 2 2 3 3 2 2 3 3 3 3 2 2 2 2 2 2 2
1 1 1 1 1 1 1 1 1 1 1 1 1 1 1 1 1 1 1 1 1 1 1 1 1 2 2 2 2 2 2 2 2 2 2 2 2 2 2 2 2 2 2
0 1 1 1 1 0 0 0 0 0 0 0 0 0 1 0 1 1 1 1 1 1 1 1 1 1 1 2 2 2 2 2 2 2 2 2 2 2 2 1 1 1 1
0 0 0 0 0 0 -0 -0 -0 -0 -0 -1 -1 -0 -0 0 0 0 0 0 0 0 0 0 1 1 1 1 1 2 2 2 2 2 1 1 1 1 1 1 1 1 1
-0 -0 -0 -0 -0 -0 -1 -1 -1 -1 -1 -1 -1 -1 -1 -0 -0 -0 0 0 0 0 0 0 0 1 1 1 1 1 1 1 1 1 1 1 1 0 0 0 0 1 0
-1 -1 -1 -1 -1 -1 -1 -1 -1 -1 -2 -2 -1 -1 -1 -1 -1 -1 -0 -0 -0 -0 -0 0 0 0 0 0 1 1 1 1 1 0 0 0 0 0 -0 0 0 0 -0
-1 -1 -1 -1 -2 -2 -2 -2 -2 -2 -2 -2 -1 -1 -1 -1 -1 -1 -1 -1 -0 -0 -0 -0 -0 -0 -0 -0 -0 -0 0 0 0 0 -0 -0 -0 -0 -0 -0 -0 -0 -1
-2 -2 -2 -2 -2 -2 -2 -2 -2 -2 -2 -1 -1 -1 -1 -1 -1 -1 -1 -1 -0 -0 -0 -0 -1 -1 -0 -0 -0 -0 -0 -0 -0 -0 -0 -0 -0 -1 -1 -1 -1 -1 -1
-2 -2 -2 -2 -3 -3 -3 -3 -3 -3 -2 -2 -1 -1 -1 -1 -1 -1 -1 -1 -1 -1 -1 -1 -1 -1 -1 -1 -1 -1 -1 -1 -1 -1 -1 -1 -1 -1 -1 -1 -1 -1 -2
-3 -3 -3 -3 -3 -3 -3 -3 -3 -3 -3 -2 -2 -2 -2 -2 -1 -1 -1 -1 -1 -1 -1 -1 -1 -1 -1 -1 -1 -1 -1 -1 -1 -1 -1 -1 -1 -1 -1 -2 -2 -2 -2
-3 -3 -3 -3 -3 -3 -3 -4 -3 -3 -3 -3 -3 -2 -2 -2 -2 -2 -2 -2 -2 -2 -1 -1 -1 -1 -1 -1 -1 -1 -1 -1 -1 -1 -1 -1 -1 -2 -2 -2 -2 -2 -3
-4 -4 -4 -4 -4 -4 -4 -4 -4 -4 -3 -3 -3 -3 -3 -3 -3 -3 -2 -2 -2 -2 -2 -2 -1 -1 -1 -1 -1 -1 -1 -1 -1 -1 -2 -2 -2 -2 -2 -2 -2 -3 -3
-4 -4 -4 -4 -4 -4 -4 -4 -4 -4 -3 -3 -3 -3 -3 -3 -3 -3 -3 -3 -3 -2 -2 -2 -2 -1 -1 -1 -1 -1 -1 -1 -1 -2 -2 -2 -2 -2 -2 -2 -3 -3 -3
-5 -5 -5 -4 -4 -4 -4 -4 -4 -4 -4 -4 -4 -4 -3 -3 -3 -3 -3 -3 -3 -2 -2 -2 -2 -2 -2 -2 -2 -2 -2 -2 -2 -2 -2 -2 -2 -2 -2 -3 -3 -3 -3
-5 -5 -5 -5 -5 -5 -5 -5 -5 -4 -4 -4 -4 -4 -4 -4 -4 -4 -3 -3 -3 -3 -3 -2 -2 -2 -2 -2 -2 -2 -2 -2 -2 -2 -2 -2 -2 -2 -3 -3 -3 -3 -4
-5 -5 -5 -5 -5 -5 -5 -5 -5 -5 -5 -4 -4 -4 -4 -4 -4 -4 -4 -3 -3 -3 -3 -3 -3 -3 -2 -2 -2 -2 -2 -2 -2 -2 -2 -2 -2 -3 -3 -3 -4 -4 -4
-6 -6 -6 -6 -6 -6 -6 -6 -5 -5 -5 -5 -5 -5 -5 -5 -4 -4 -4 -4 -3 -3 -3 -3 -3 -3 -3 -3 -3 -3 -3 -3 -3 -3 -3 -3 -3 -3 -3 -4 -4 -4 -4
Wind_Speed
3 3 4 5 5 5 5 7 7 7 7 7 7 7 7 7 8 8 8 8 9 9 8 9 10 8 7 6 6 6 6 6 9 7 4 4 4 5 5 5 6 6 6
4 4 4 5 5 5 6 7 7 7 7 6 6 6 7 7 7 8 9 8 9 9 9 9 9 7 8 6 6 7 6 6 7 8 6 4 5 5 5 4 4 4 4
4 4 4 5 5 6 7 7 7 6 6 6 6 6 7 7 7 7 8 8 7 8 8 9 9 8 8 7 7 7 6 6 6 7 6 4 4 4 3 3 3 3 3
4 4 4 5 6 6 7 7 6 6 6 6 6 6 6 6 6 6 6 6 6 7 8 8 8 8 9 8 7 7 6 6 5 5 5 4 3 3 2 2 2 2 2
4 5 5 6 6 6 6 6 6 6 6 6 5 5 5 4 4 4 4 5 5 6 6 6 7 9 11 9 7 6 6 6 5 5 5 3 3 2 2 2 2 2 2
5 5 6 5 6 6 5 6 6 5 5 5 5 5 5 5 6 7 6 4 5 5 6 5 5 7 7 8 9 9 8 8 7 6 5 5 5 3 2 2 2 2 2
5 5 5 5 6 6 6 5 6 6 5 5 5 4 5 6 8 8 7 4 4 4 5 4 4 4 4 4 5 6 8 10 10 7 6 6 5 4 4 3 3 3 3
5 5 5 5 6 6 5 5 6 5 5 5 5 5 5 6 8 8 7 4 4 4 4 4 4 3 4 3 3 3 4 5 6 5 5 5 4 4 5 5 3 1 0
5 6 6 6 6 6 6 6 5 4 5 4 4 4 5 7 8 7 6 3 3 4 3 3 3 3 4 4 3 3 3 3 2 3 3 3 4 5 4 3 3 2 1
7 7 6 6 6 6 6 6 5 4 4 4 4 4 5 5 7 6 5 2 3 3 3 3 4 4 4 4 3 3 4 3 1 1 1 0 1 1 2 3 4 3 1
7 6 6 6 6 5 5 4 4 4 4 4 4 4 4 5 6 6 5 2 2 2 2 3 3 4 4 3 3 3 4 2 2 2 2 1 1 1 2 2 1 2 2
6 6 6 6 5 5 4 4 4 3 3 4 4 5 4 4 5 5 5 4 3 2 2 2 2 3 4 4 2 1 2 1 2 3 2 1 2 2 2 3 4 4 3
6 6 6 6 5 4 4 4 4 3 2 3 3 4 5 4 4 5 4 4 4 2 2 2 2 2 3 2 2 1 1 1 2 3 2 2 2 2 3 3 5 5 7
6 6 5 5 5 4 4 3 3 3 3 3 3 3 4 4 3 2 2 2 1 1 1 1 2 2 2 2 2 2 1 2 3 3 2 3 3 3 3 3 3 3 5
6 5 5 4 4 4 4 3 3 3 3 3 3 3 3 4 4 5 3 2 1 1 0 0 1 1 1 1 1 1 2 2 3 3 3 4 4 4 3 3 2 3 3
5 5 4 4 4 3 3 4 6 5 7 7 6 5 3 4 5 5 4 3 3 1 1 1 1 1 1 1 1 1 2 2 3 3 3 4 4 4 4 3 3 4 4
5 5 4 3 3 3 3 3 5 6 7 6 6 6 5 5 4 4 3 3 2 2 2 1 1 1 0 0 1 1 1 2 3 3 4 4 4 4 4 4 4 4 4
5 5 4 3 3 3 3 3 3 4 5 5 6 6 6 5 4 4 4 4 3 2 1 1 1 1 1 0 1 1 2 2 3 3 4 4 4 4 4 4 3 4 3
4 4 3 3 3 3 3 2 2 3 3 4 4 5 6 5 5 5 4 3 2 2 2 1 1 1 1 1 1 2 2 3 3 3 4 4 4 4 4 3 3 5 4
4 5 4 3 3 2 2 2 2 3 3 3 3 3 4 4 3 4 3 3 2 2 2 1 1 1 1 1 2 2 3 3 4 3 4 4 4 4 4 4 3 3 3
3 4 5 3 2 2 2 2 2 2 2 2 2 3 4 3 2 3 3 3 2 2 2 2 2 1 1 2 2 3 3 3 3 4 4 4 4 4 4 4 3 3 3
3 3 2 2 2 2 2 2 2 2 2 2 2 3 4 3 2 2 2 2 2 2 2 1 2 1 2 2 2 2 3 3 3 4 4 4 4 4 4 4 4 3 4
2 2 2 2 2 3 3 2 2 2 2 2 2 3 3 2 2 2 3 3 3 3 2 2 2 2 3 2 2 2 3 3 3 4 5 5 5 4 4 4 5 4 4
2 2 2 2 2 2 2 2 2 2 2 2 2 2 2 2 2 3 3 3 3 3 3 2 3 3 4 3 3 3 3 3 3 4 5 6 6 5 5 5 4 4 4
2 2 2 2 2 2 2 2 2 2 2 2 2 2 2 2 3 3 3 3 3 3 3 3 3 3 4 4 3 3 6 7 6 5 5 6 6 6 5 5 5 4 4
2 2 2 2 2 2 2 2 2 2 2 2 2 2 3 3 2 3 3 3 3 3 3 3 4 4 4 4 5 6 8 8 8 8 6 6 6 6 6 5 5 5 5
Wind_Direction
277 278 282 283 282 282 277 273 273 275 271 266 264 262 259 258 247 240 243 242 240 242 242 238 239 235 235 235 234 235 240 239 257 271 265 267 258 258 272 271 266 258 259
277 279 279 282 289 291 285 283 282 281 276 271 270 270 265 263 251 244 246 244 241 242 245 240 238 234 231 236 234 234 237 233 242 260 268 263 255 249 260 267 285 273 268
287 283 285 291 295 295 292 291 289 286 285 284 275 272 271 268 263 253 244 241 241 240 241 238 235 231 234 235 233 231 235 239 236 246 259 259 259 248 261 277 278 281 286
300 294 288 289 289 292 292 294 292 287 284 284 281 273 270 269 271 265 248 242 244 248 246 240 233 230 232 232 232 230 229 233 234 234 246 255 256 246 239 251 289 297 302
307 303 295 294 293 294 295 296 295 293 293 288 288 289 283 278 273 266 259 249 247 255 255 248 238 236 238 236 233 228 224 225 228 231 239 246 249 236 241 220 256 297 310
302 295 297 305 310 303 298 302 304 303 298 298 294 290 289 287 290 290 282 268 259 256 261 260 256 249 244 242 243 243 234 224 224 230 236 231 241 242 241 224 232 267 282
306 305 311 315 314 307 305 312 308 303 300 302 297 290 287 288 294 293 288 286 274 259 258 258 269 259 247 230 246 255 246 240 235 228 227 231 227 226 220 226 227 232 249
313 313 316 315 310 309 313 309 302 297 298 295 292 290 288 289 294 294 294 288 279 273 262 249 246 260 246 232 232 244 244 245 239 231 218 223 224 219 212 211 212 190 80
316 314 310 305 302 305 306 302 301 299 295 285 278 279 281 286 291 293 298 285 282 282 275 267 252 254 257 248 234 240 252 266 257 220 219 219 224 229 207 166 164 166 226
311 310 308 304 301 302 303 305 306 301 294 287 282 278 275 280 291 296 302 278 283 291 297 287 277 274 277 261 224 213 228 239 200 130 121 175 223 193 177 182 179 183 191
308 308 307 307 304 299 300 302 304 304 307 306 299 296 288 284 292 288 290 268 254 270 277 282 285 300 304 291 267 229 219 215 176 158 141 102 80 83 66 60 96 172 188
310 309 308 307 307 309 303 305 306 306 310 310 310 311 303 297 295 287 284 280 279 255 262 270 283 308 323 326 301 238 204 189 157 139 128 121 109 81 67 61 58 55 63
312 310 311 314 316 315 309 308 311 307 300 301 308 309 308 303 296 299 300 291 297 290 270 282 307 322 334 339 342 359 117 142 132 129 133 124 104 100 90 76 66 65 55
310 311 313 316 320 326 324 316 312 310 305 304 305 300 305 310 297 288 293 307 310 322 347 8 11 15 10 4 7 51 88 121 126 125 119 109 97 92 85 80 82 76 68
311 310 312 313 313 322 326 321 308 300 291 295 293 286 293 302 297 294 289 283 278 237 294 65 57 37 42 38 40 51 75 96 103 104 112 109 102 93 80 74 77 73 81
310 310 310 314 319 323 329 336 338 327 326 321 314 309 305 302 313 320 321 317 319 338 71 114 107 85 69 80 80 66 80 92 101 105 113 116 114 108 96 81 80 89 90
304 306 312 318 322 324 326 329 332 340 345 347 342 335 333 335 338 342 353 12 17 39 75 111 136 137 91 86 122 113 92 100 106 109 113 115 114 109 103 97 91 91 87
315 315 320 319 320 322 323 326 326 329 336 343 348 350 351 353 6 23 31 39 36 36 69 111 130 141 119 94 130 116 107 105 105 109 112 113 115 113 109 107 102 101 94
318 319 323 324 324 324 325 329 332 332 331 334 344 351 359 12 26 31 36 48 43 24 20 51 89 101 113 109 111 116 114 111 108 106 111 112 114 113 110 109 107 100 91
316 316 322 325 329 333 334 338 340 338 337 339 340 340 351 18 31 22 25 30 29 19 15 26 48 72 84 94 94 103 108 106 108 103 108 110 110 113 115 114 113 110 99
312 320 325 330 334 335 340 344 342 342 337 341 340 343 354 20 25 18 17 20 19 14 19 26 37 46 64 77 88 95 102 108 110 112 114 115 116 114 113 112 110 108 107
315 322 332 335 337 337 338 344 346 341 341 347 351 354 359 23 28 21 16 15 16 20 26 33 38 52 68 79 91 102 104 106 113 119 119 118 117 115 114 112 109 107 108
326 329 334 337 337 330 339 349 354 354 354 349 355 5 10 18 21 17 14 17 22 22 25 34 44 56 63 58 67 101 116 119 122 132 131 126 121 117 117 116 115 113 108
335 332 334 336 339 345 353 358 1 359 356 359 11 10 8 16 22 19 19 25 28 27 30 36 56 65 65 61 62 72 92 106 109 121 125 128 124 119 116 113 110 111 110
351 348 347 349 349 359 9 10 10 11 8 10 14 11 19 29 28 23 27 33 35 36 35 41 51 58 64 66 71 88 100 99 102 105 107 113 115 117 117 114 113 108 104
356 358 358 360 7 16 18 16 13 15 17 16 18 21 25 31 31 29 31 35 35 41 48 46 48 58 61 66 84 96 97 99 101 101 103 109 110 112 112 110 111 106 103
Height
1414 1413 1412 1411 1410 1408 1407 1405 1403 1402 1400 1399 1398 1397 1395 1394 1394 1394 1394 1394 1394 1394 1396 1397 1397 1399 1400 1401 1402 1402 1403 1403 1401 1399 1400 1400 1401 1401 1401 1401 1401 1401 1401
1410 1409 1408 1406 1405 1403 1402 1400 1398 1396 1394 1393 1392 1391 1389 1388 1388 1387 1387 1387 1387 1387 1388 1390 1390 1392 1392 1394 1395 1395 1396 1396 1396 1394 1393 1394 1395 1396 1395 1395 1395 1395 1395
1406 1405 1403 1402 1400 1398 1396 1394 1392 1390 1388 1387 1386 1385 1383 1383 1382 1381 1381 1381 1381 1381 1382 1383 1384 1385 1385 1386 1387 1388 1389 1389 1389 1389 1387 1388 1389 1390 1390 1390 1390 1390 1390
1403 1401 1399 1397 1395 1393 1391 1389 1387 1385 1383 1381 1380 1379 1378 1377 1376 1375 1375 1375 1375 1376 1376 1376 1377 1378 1379 1380 1381 1382 1382 1383 1383 1383 1383 1383 1384 1385 1385 1384 1384 1385 1384
1399 1397 1395 1393 1391 1389 1387 1384 1382 1380 1378 1377 1375 1374 1373 1372 1371 1371 1370 1370 1370 1370 1370 1371 1371 1372 1373 1374 1375 1375 1376 1377 1378 1377 1378 1378 1379 1379 1380 1380 1380 1380 1380
1395 1393 1391 1389 1386 1384 1382 1379 1377 1375 1373 1372 1370 1369 1368 1367 1367 1367 1366 1366 1366 1366 1365 1365 1366 1366 1367 1368 1369 1369 1371 1371 1372 1372 1373 1373 1374 1375 1376 1376 1376 1376 1375
1392 1390 1387 1385 1383 1380 1378 1375 1373 1371 1369 1367 1366 1365 1363 1363 1362 1362 1362 1362 1361 1361 1361 1361 1361 1362 1362 1362 1363 1364 1365 1367 1368 1368 1368 1368 1369 1370 1371 1372 1372 1372 1372
1388 1386 1384 1382 1379 1377 1374 1371 1369 1367 1365 1364 1362 1361 1360 1359 1359 1358 1358 1358 1358 1358 1358 1358 1358 1357 1358 1358 1359 1359 1360 1361 1362 1363 1364 1364 1365 1366 1367 1368 1368 1369 1370
1385 1383 1381 1379 1376 1373 1370 1368 1366 1363 1362 1360 1359 1357 1356 1355 1355 1355 1355 1355 1355 1354 1355 1355 1355 1354 1354 1355 1355 1355 1356 1357 1358 1359 1359 1360 1362 1363 1363 1364 1364 1365 1365
1382 1380 1378 1376 1373 1370 1368 1365 1363 1361 1359 1357 1356 1354 1353 1352 1352 1352 1352 1352 1352 1351 1351 1351 1351 1351 1351 1351 1351 1352 1352 1353 1354 1354 1356 1357 1358 1359 1359 1360 1361 1362 1362
1380 1378 1375 1373 1371 1368 1366 1363 1361 1358 1356 1354 1352 1351 1350 1350 1349 1349 1350 1350 1349 1349 1348 1348 1348 1348 1348 1348 1348 1348 1349 1350 1351 1352 1353 1354 1354 1355 1356 1357 1359 1360 1361
1377 1375 1373 1370 1368 1366 1363 1361 1359 1356 1353 1351 1350 1348 1348 1347 1347 1346 1347 1347 1347 1347 1346 1346 1346 1346 1345 1345 1345 1346 1346 1347 1348 1349 1350 1351 1352 1353 1354 1355 1357 1358 1359
1374 1372 1370 1367 1365 1363 1361 1358 1356 1354 1351 1349 1347 1346 1345 1345 1344 1344 1344 1344 1345 1345 1344 1344 1344 1344 1343 1343 1343 1344 1344 1345 1345 1346 1347 1349 1350 1352 1353 1354 1355 1356 1357
1371 1369 1367 1365 1362 1360 1358 1356 1354 1351 1349 1347 1346 1344 1343 1342 1342 1341 1341 1341 1342 1342 1342 1342 1342 1342 1342 1342 1342 1342 1342 1343 1344 1345 1346 1348 1349 1351 1352 1353 1354 1355 1356
1369 1367 1365 1362 1360 1358 1356 1354 1352 1350 1349 1347 1345 1344 1342 1340 1340 1340 1339 1339 1339 1339 1339 1339 1340 1340 1339 1339 1340 1340 1341 1342 1343 1344 1345 1346 1348 1350 1351 1353 1354 1354 1355
1366 1364 1362 1360 1358 1356 1353 1351 1350 1348 1347 1345 1344 1342 1340 1340 1338 1338 1338 1337 1337 1338 1338 1337 1338 1338 1338 1338 1338 1339 1340 1341 1342 1343 1345 1346 1347 1349 1351 1352 1353 1354 1355
1364 1362 1360 1357 1356 1354 1351 1349 1346 1345 1344 1342 1341 1340 1339 1338 1337 1336 1336 1336 1336 1337 1336 1336 1336 1337 1337 1337 1338 1338 1339 1341 1342 1343 1344 1346 1347 1349 1351 1352 1353 1354 1355
1362 1360 1358 1356 1354 1352 1350 1348 1346 1343 1341 1340 1339 1339 1337 1337 1336 1336 1336 1335 1335 1336 1336 1336 1336 1336 1336 1337 1337 1338 1339 1340 1342 1343 1345 1346 1348 1349 1351 1352 1353 1355 1356
1359 1357 1356 1354 1352 1350 1348 1346 1344 1343 1341 1339 1338 1338 1337 1337 1336 1336 1335 1335 1335 1335 1335 1335 1336 1336 1336 1336 1337 1338 1339 1340 1342 1343 1345 1346 1348 1350 1351 1353 1354 1355 1356
1357 1355 1354 1352 1350 1348 1346 1344 1343 1342 1340 1339 1338 1338 1337 1336 1335 1335 1335 1335 1334 1334 1334 1335 1335 1336 1336 1336 1337 1338 1339 1340 1342 1344 1345 1347 1349 1350 1351 1353 1354 1356 1357
1355 1353 1351 1349 1348 1346 1345 1343 1342 1341 1340 1339 1338 1338 1338 1337 1336 1336 1335 1335 1334 1334 1334 1335 1335 1336 1336 1336 1337 1338 1339 1341 1342 1344 1346 1347 1349 1350 1352 1354 1355 1356 1358
1353 1351 1349 1348 1346 1345 1344 1342 1341 1340 1340 1339 1338 1338 1338 1337 1337 1336 1335 1335 1335 1335 1335 1335 1335 1336 1337 1337 1338 1338 1339 1341 1343 1344 1346 1348 1350 1351 1353 1354 1355 1357 1358
1351 1349 1347 1346 1345 1344 1342 1342 1341 1340 1339 1339 1339 1338 1338 1337 1337 1336 1336 1336 1335 1335 1335 1336 1336 1337 1337 1338 1339 1340 1340 1341 1343 1345 1347 1348 1350 1351 1353 1354 1356 1357 1359
1349 1347 1346 1344 1343 1342 1341 1341 1340 1340 1340 1339 1339 1338 1338 1337 1337 1337 1336 1336 1336 1336 1337 1337 1337 1338 1338 1339 1340 1341 1341 1343 1344 1346 1348 1349 1350 1352 1353 1355 1357 1358 1360
1347 1346 1344 1343 1343 1342 1341 1340 1340 1340 1340 1339 1339 1338 1338 1338 1337 1337 1337 1337 1337 1338 1338 1338 1339 1339 1340 1341 1341 1342 1343 1345 1346 1347 1349 1350 1352 1353 1355 1356 1358 1359 1361
1346 1345 1344 1343 1342 1342 1341 1340 1340 1340 1340 1340 1339 1339 1338 1338 1338 1338 1339 1339 1339 1339 1339 1340 1340 1341 1342 1343 1344 1345 1346 1346 1348 1349 1350 1352 1353 1355 1356 1358 1359 1361 1363